Temp
62 61 63 62 55 51 48 52 56 57 58 58 59 60 59 56 58 54 63 65 65 66 68 68 70 71 71 71 71 71 72 73 74 76 76 76 76 76 76 75 75 75 76 77 77 77 76 75 74
61 66 62 55 49 45 48 53 53 57 59 57 58 58 58 57 59 60 62 64 64 65 66 67 68 69 70 70 70 70 71 71 71 72 73 75 75 75 75 76 75 75 77 77 77 77 76 74 74
64 64 59 50 44 46 48 53 55 58 59 58 56 56 56 55 58 60 63 63 63 62 63 65 67 68 68 69 69 69 69 70 71 70 70 71 74 74 74 74 75 75 76 77 77 77 76 74 74
62 61 55 50 46 50 52 55 57 57 58 59 57 55 56 61 60 62 62 62 62 61 62 62 65 66 66 67 67 67 68 68 69 70 69 69 70 71 73 73 74 74 76 77 77 76 75 74 74
58 55 48 45 47 51 53 56 56 56 57 56 56 55 54 59 61 60 60 61 60 60 60 61 62 63 64 65 65 66 66 66 67 67 68 68 68 68 69 72 73 73 74 75 76 75 74 73 73
54 53 46 44 46 51 54 56 56 56 56 56 55 51 54 60 60 58 59 58 59 58 58 59 58 60 61 62 63 63 64 64 65 65 65 66 67 67 67 68 71 73 73 74 74 74 72 73 71
52 49 46 45 46 49 53 55 54 54 54 55 56 53 54 56 58 57 57 58 58 58 57 57 57 57 57 58 60 61 62 62 63 63 63 63 63 65 66 65 67 71 72 73 72 72 72 72 71
51 51 44 44 45 48 52 54 54 54 55 56 58 52 53 56 57 56 57 57 57 56 56 56 56 56 55 56 57 59 60 60 60 61 60 59 60 61 63 63 64 67 71 72 71 71 72 71 70
54 47 43 47 45 49 52 51 55 56 54 54 55 55 56 55 55 55 55 55 56 57 55 55 55 55 55 56 58 56 56 57 58 57 57 58 59 61 62 62 62 66 69 70 70 70 70 69 67
51 44 47 50 50 49 51 51 52 52 51 52 52 54 54 54 54 53 53 54 53 54 55 55 54 54 54 56 56 54 55 55 55 55 55 57 58 58 59 59 59 62 64 68 69 69 67 65 68
48 47 48 51 51 52 51 49 53 50 48 52 51 52 52 52 52 52 52 52 53 53 53 54 53 54 53 53 53 52 52 52 53 53 54 55 56 56 57 59 62 64 60 66 67 65 63 64 66
46 49 50 52 51 50 49 51 49 49 53 54 54 53 51 51 50 51 51 52 52 52 52 53 53 52 53 53 53 53 53 52 51 53 53 53 53 54 55 56 60 61 64 64 64 62 61 64 65
47 48 50 51 50 49 49 48 48 47 51 52 52 51 51 50 50 51 52 52 51 51 51 52 52 52 52 51 52 52 52 52 52 52 53 53 53 53 54 56 58 58 63 63 62 60 60 61 62
49 49 49 50 49 49 47 47 46 50 49 48 49 49 50 50 51 51 50 51 51 50 50 51 51 51 51 51 50 51 52 52 52 51 52 53 53 53 54 54 56 56 62 63 62 60 59 60 62
48 45 46 46 48 47 47 45 43 49 48 48 47 48 49 49 50 50 51 51 51 50 49 49 50 52 50 49 50 51 52 54 54 54 54 53 53 53 54 54 56 57 62 62 60 60 58 58 61
43 43 41 44 46 46 46 44 49 48 46 47 46 46 47 48 49 50 49 49 51 48 47 48 50 49 49 49 50 51 52 54 54 54 54 54 53 54 53 53 55 56 60 61 60 58 56 58 60
40 39 38 43 46 45 44 42 48 46 45 46 45 46 46 47 48 48 49 50 49 47 46 47 48 48 48 49 51 52 53 53 53 53 53 53 53 53 53 54 55 55 59 60 60 58 56 56 60
37 37 38 38 43 41 40 41 48 48 45 46 46 45 45 46 48 49 49 49 48 46 46 46 47 47 48 48 51 52 52 53 53 52 53 53 53 54 54 54 54 54 59 60 60 58 57 58 57
41 38 37 40 43 40 39 40 44 48 44 45 45 44 44 45 48 48 47 48 46 46 45 45 45 47 47 48 48 48 48 50 51 53 53 53 53 54 54 54 54 54 56 60 60 58 56 55 55
39 37 36 40 41 40 37 40 47 44 42 43 43 42 43 44 45 45 46 47 44 43 44 44 45 46 47 48 48 48 49 49 50 52 53 54 53 54 55 54 54 55 55 59 58 57 54 55 57
37 35 33 38 39 38 34 36 41 42 42 43 43 42 42 43 43 43 44 46 44 43 42 44 44 45 47 48 48 49 51 51 52 52 52 53 54 55 54 53 53 54 58 58 58 57 55 53 54
36 39 38 37 36 30 36 28 34 38 40 41 42 41 41 42 43 43 44 44 44 43 43 43 44 45 48 47 47 46 46 47 50 54 55 53 55 56 55 56 55 60 60 58 58 58 57 57 52
38 40 38 36 34 32 31 26 34 37 39 40 42 42 41 41 42 41 42 43 44 42 42 43 43 45 47 46 47 46 46 48 52 52 55 53 54 56 57 56 58 59 59 59 59 58 57 58 55
41 39 36 33 32 24 27 27 33 33 39 40 40 41 41 40 40 41 42 42 42 42 42 42 43 44 46 46 46 45 45 47 48 48 51 54 56 56 59 59 59 59 59 59 59 59 58 58 57
38 35 27 25 22 27 28 27 35 41 42 43 42 41 40 40 39 39 40 40 41 41 41 42 43 43 45 45 45 45 45 46 46 48 48 49 53 55 56 58 58 59 59 59 59 58 57 57 56
35 36 30 24 23 28 29 27 39 40 41 42 42 42 40 39 39 39 39 39 40 40 41 42 43 43 43 44 44 45 45 45 46 47 47 48 49 51 53 54 55 55 56 56 58 57 56 55 53
35 32 36 29 18 22 31 36 43 41 40 39 40 39 38 38 38 38 38 39 40 40 41 41 42 43 43 44 44 44 44 44 45 46 47 46 48 50 50 51 50 51 52 53 55 54 53 54 53
35 38 30 26 22 21 30 32 38 41 42 40 39 38 38 38 38 38 38 38 39 40 40 42 43 43 44 44 44 44 44 44 45 46 45 45 46 47 48 49 49 48 49 49 49 49 50 49 48
32 31 32 33 30 27 25 35 41 43 43 41 41 40 39 38 38 38 37 37 39 39 39 41 42 43 45 44 44 44 43 43 44 44 44 45 45 46 46 47 47 47 47 46 46 45 45 44 43
33 34 33 30 27 26 29 33 44 43 42 41 41 41 40 39 39 38 37 37 37 38 39 40 42 44 43 44 44 44 44 44 43 43 43 45 45 45 46 45 45 45 45 46 45 44 44 43 41
MSLP
1013.54 1013.39 1013.35 1013.87 1015.34 1016.14 1015.90 1015.45 1015.00 1015.00 1015.17 1015.31 1015.34 1015.43 1015.88 1016.21 1016.52 1017.60 1017.55 1017.57 1017.53 1017.40 1017.25 1017.06 1016.72 1016.43 1016.31 1016.12 1015.92 1015.74 1015.54 1015.23 1014.99 1014.79 1014.68 1014.65 1014.73 1014.84 1014.88 1015.00 1015.05 1015.09 1015.14 1015.19 1015.39 1015.60 1015.95 1016.27 1016.69
1013.61 1013.43 1013.85 1015.00 1015.94 1016.52 1015.85 1015.27 1015.11 1014.92 1014.93 1015.36 1015.86 1016.13 1016.36 1016.69 1016.94 1017.30 1017.61 1017.62 1017.55 1017.52 1017.41 1017.22 1016.94 1016.69 1016.50 1016.33 1016.19 1015.98 1015.77 1015.49 1015.29 1015.01 1014.70 1014.46 1014.57 1014.65 1014.77 1014.70 1014.81 1014.93 1014.97 1015.07 1015.28 1015.55 1015.87 1016.41 1016.59
1013.71 1013.55 1014.79 1015.84 1016.63 1016.36 1015.82 1015.18 1014.96 1015.09 1015.20 1015.30 1015.92 1016.61 1016.76 1016.99 1017.28 1017.39 1017.62 1017.75 1017.73 1017.71 1017.64 1017.45 1017.17 1016.89 1016.66 1016.45 1016.32 1016.16 1015.93 1015.68 1015.38 1015.21 1014.94 1014.63 1014.35 1014.29 1014.40 1014.56 1014.56 1014.70 1014.69 1014.82 1015.05 1015.35 1015.71 1016.21 1016.50
1013.78 1014.39 1016.10 1016.13 1016.48 1015.82 1015.45 1014.97 1014.98 1015.16 1015.38 1015.57 1015.89 1016.70 1017.06 1017.02 1017.21 1017.44 1017.66 1017.79 1017.74 1017.75 1017.72 1017.58 1017.30 1017.09 1016.86 1016.61 1016.41 1016.23 1015.99 1015.73 1015.42 1015.13 1015.01 1014.84 1014.52 1014.25 1014.03 1014.15 1014.33 1014.47 1014.43 1014.49 1014.77 1015.08 1015.53 1016.06 1016.34
1014.38 1015.34 1016.20 1016.58 1016.18 1015.62 1015.35 1014.97 1015.12 1015.24 1015.32 1015.72 1015.94 1016.53 1016.93 1017.09 1017.32 1017.54 1017.70 1017.79 1017.81 1017.84 1017.80 1017.63 1017.39 1017.20 1016.96 1016.64 1016.41 1016.19 1015.93 1015.70 1015.43 1015.15 1014.84 1014.61 1014.39 1014.16 1014.00 1013.78 1013.89 1014.09 1014.25 1014.19 1014.39 1014.81 1015.29 1015.77 1016.13
1015.08 1015.82 1016.51 1016.75 1016.05 1015.51 1015.20 1015.17 1015.35 1015.32 1015.41 1015.84 1016.12 1016.62 1016.78 1016.93 1017.32 1017.53 1017.69 1017.84 1017.90 1017.97 1017.88 1017.71 1017.47 1017.28 1017.10 1016.79 1016.51 1016.22 1015.88 1015.64 1015.38 1015.14 1014.87 1014.59 1014.22 1014.01 1013.85 1013.75 1013.58 1013.62 1013.94 1014.01 1014.23 1014.50 1015.09 1015.45 1016.01
1015.28 1015.94 1016.25 1016.34 1015.89 1015.47 1015.09 1015.16 1015.61 1015.53 1015.54 1015.63 1015.80 1016.41 1016.88 1017.11 1017.23 1017.42 1017.68 1017.86 1017.93 1017.92 1017.79 1017.65 1017.49 1017.28 1017.02 1016.79 1016.50 1016.18 1015.88 1015.65 1015.36 1015.09 1014.86 1014.67 1014.29 1013.89 1013.63 1013.51 1013.46 1013.23 1013.36 1013.74 1014.02 1014.38 1014.92 1015.26 1015.85
1015.40 1015.97 1016.27 1016.00 1016.01 1015.28 1015.09 1015.02 1015.29 1015.76 1015.61 1015.68 1015.81 1016.16 1016.48 1016.63 1017.09 1017.44 1017.67 1017.79 1017.94 1017.92 1017.78 1017.57 1017.32 1017.13 1016.86 1016.71 1016.44 1016.14 1015.87 1015.55 1015.22 1014.92 1014.69 1014.43 1014.17 1013.76 1013.29 1013.07 1013.00 1013.23 1012.84 1013.17 1013.77 1014.18 1014.70 1015.17 1015.76
1015.36 1016.02 1016.45 1015.75 1015.81 1015.08 1015.13 1015.12 1015.32 1015.58 1015.67 1015.83 1015.76 1015.84 1016.11 1016.62 1017.09 1017.36 1017.58 1017.75 1017.83 1017.71 1017.50 1017.32 1017.16 1016.91 1016.79 1016.50 1016.19 1016.04 1015.70 1015.35 1014.97 1014.71 1014.47 1014.16 1013.83 1013.47 1013.07 1012.67 1012.65 1012.44 1012.45 1012.84 1013.28 1013.79 1014.46 1015.01 1015.68
1015.46 1016.19 1015.60 1015.06 1015.01 1015.07 1015.02 1015.10 1015.26 1015.78 1015.72 1015.84 1015.81 1015.90 1016.26 1016.60 1016.93 1017.19 1017.42 1017.56 1017.64 1017.43 1017.21 1017.17 1016.97 1016.74 1016.59 1016.34 1016.08 1015.89 1015.46 1015.01 1014.70 1014.41 1014.17 1013.82 1013.53 1013.28 1013.03 1012.63 1012.26 1012.19 1012.05 1012.21 1012.88 1013.55 1014.18 1014.90 1015.51
1015.52 1015.64 1015.34 1015.06 1014.83 1015.17 1015.18 1015.22 1015.26 1015.49 1015.45 1014.98 1015.04 1015.40 1016.04 1016.48 1016.78 1017.01 1017.19 1017.33 1017.37 1017.26 1017.17 1016.96 1016.74 1016.53 1016.42 1016.22 1015.95 1015.55 1015.13 1014.75 1014.38 1014.09 1013.85 1013.52 1013.22 1013.07 1012.84 1012.40 1011.98 1011.67 1011.62 1011.77 1012.60 1013.45 1013.75 1015.39 1015.51
1015.54 1015.18 1015.38 1015.04 1015.05 1015.19 1015.28 1015.20 1015.33 1015.20 1014.37 1014.25 1014.51 1014.90 1015.69 1016.21 1016.59 1016.80 1016.98 1017.11 1017.26 1017.14 1016.90 1016.82 1016.45 1016.22 1016.12 1015.94 1015.54 1015.13 1014.70 1014.34 1013.98 1013.55 1013.38 1013.13 1013.01 1012.80 1012.61 1012.32 1011.81 1011.50 1011.12 1011.55 1012.36 1013.78 1013.94 1015.23 1015.63
1015.41 1015.14 1015.35 1015.07 1015.09 1015.16 1015.21 1015.32 1015.35 1014.45 1014.10 1014.39 1014.62 1015.03 1015.49 1015.97 1016.31 1016.44 1016.67 1016.87 1016.90 1016.93 1016.78 1016.56 1016.25 1016.17 1015.85 1015.59 1015.12 1014.66 1014.18 1013.82 1013.47 1013.17 1012.89 1012.78 1012.62 1012.55 1012.37 1012.04 1011.74 1011.35 1010.71 1011.19 1012.11 1013.12 1014.20 1015.11 1016.02
1015.04 1015.33 1015.13 1014.96 1015.14 1015.24 1015.41 1015.21 1015.32 1013.68 1013.75 1014.31 1014.71 1015.08 1015.42 1015.75 1015.99 1016.25 1016.48 1016.60 1016.77 1016.77 1016.67 1016.33 1016.19 1016.01 1015.62 1015.32 1014.84 1014.28 1013.76 1013.34 1013.05 1012.64 1012.38 1012.25 1012.18 1012.15 1012.07 1011.82 1011.56 1011.11 1010.12 1010.81 1011.20 1013.04 1014.53 1015.36 1016.18
1015.36 1015.53 1015.15 1015.26 1015.21 1015.26 1015.32 1014.99 1014.34 1013.52 1013.83 1014.29 1014.72 1015.06 1015.35 1015.56 1015.87 1015.96 1016.21 1016.47 1016.68 1016.77 1016.65 1016.35 1016.12 1015.60 1015.38 1015.01 1014.46 1013.76 1013.14 1012.57 1012.25 1011.92 1011.62 1011.52 1011.65 1011.66 1011.70 1011.53 1011.16 1010.71 1009.90 1010.57 1011.72 1013.39 1014.54 1015.34 1016.34
1015.67 1015.75 1015.65 1015.25 1015.28 1015.35 1015.33 1014.19 1013.16 1013.37 1013.97 1014.35 1014.73 1015.01 1015.19 1015.31 1015.50 1015.80 1016.15 1016.47 1016.63 1016.72 1016.53 1016.34 1016.01 1015.60 1015.13 1014.71 1014.12 1013.45 1012.83 1012.26 1011.72 1011.38 1011.17 1011.11 1011.23 1011.24 1011.33 1011.24 1010.88 1010.56 1009.66 1010.51 1011.86 1013.12 1014.33 1015.39 1016.38
1016.25 1016.20 1015.87 1015.29 1015.34 1015.41 1015.39 1014.33 1013.39 1013.55 1014.04 1014.27 1014.52 1014.65 1014.94 1015.19 1015.44 1015.68 1015.99 1016.27 1016.46 1016.56 1016.52 1016.28 1015.90 1015.49 1014.88 1014.38 1013.76 1012.97 1012.29 1011.89 1011.33 1011.02 1010.83 1010.78 1010.82 1010.91 1010.96 1011.02 1010.90 1010.70 1010.15 1009.92 1011.66 1013.00 1014.34 1015.50 1016.78
1016.23 1016.17 1015.92 1015.93 1015.58 1015.49 1015.48 1014.22 1013.23 1013.41 1013.86 1013.65 1013.91 1014.23 1014.60 1014.98 1014.96 1015.41 1015.79 1016.10 1016.32 1016.47 1016.49 1016.28 1015.97 1015.40 1014.85 1014.23 1013.40 1012.68 1012.11 1011.40 1010.87 1010.67 1010.41 1010.47 1010.55 1010.59 1010.71 1010.91 1010.80 1010.81 1009.91 1010.74 1011.74 1012.94 1014.64 1015.04 1016.37
1015.87 1016.12 1016.21 1015.86 1015.78 1015.89 1015.16 1014.20 1012.71 1012.49 1012.88 1012.95 1013.22 1013.73 1014.05 1014.46 1014.78 1015.21 1015.70 1016.06 1016.28 1016.38 1016.36 1016.25 1015.86 1015.25 1014.81 1014.03 1013.42 1012.57 1011.85 1011.03 1010.49 1010.31 1010.11 1010.19 1010.29 1010.37 1010.50 1010.77 1010.91 1010.85 1010.78 1010.98 1012.21 1013.34 1014.47 1015.60 1016.16
1015.93 1016.27 1016.35 1015.98 1016.15 1016.27 1015.57 1013.54 1011.99 1011.85 1012.07 1012.37 1012.74 1013.13 1013.54 1014.22 1014.75 1015.27 1015.69 1016.06 1016.42 1016.48 1016.40 1016.13 1015.69 1015.33 1014.80 1014.22 1013.68 1013.03 1012.07 1011.10 1010.47 1010.05 1009.96 1010.00 1010.14 1010.24 1010.44 1010.37 1010.73 1011.18 1011.07 1011.41 1012.33 1013.15 1014.36 1015.62 1015.47
1016.16 1016.48 1016.69 1016.88 1016.57 1016.71 1016.45 1013.92 1012.13 1011.79 1011.94 1011.99 1012.38 1012.72 1013.09 1013.65 1014.48 1015.17 1015.70 1016.04 1016.39 1016.49 1016.35 1016.08 1015.69 1015.33 1014.71 1014.13 1013.50 1012.69 1011.63 1010.84 1010.21 1009.80 1009.83 1009.94 1010.02 1010.15 1010.60 1010.38 1010.38 1010.51 1011.34 1011.47 1012.38 1013.06 1014.00 1015.09 1015.77
1016.36 1016.27 1016.73 1017.18 1017.51 1018.00 1017.46 1016.12 1013.13 1011.94 1011.85 1011.74 1012.15 1012.75 1013.10 1013.58 1014.37 1015.18 1015.70 1015.98 1016.28 1016.50 1016.31 1016.06 1015.77 1015.38 1014.68 1014.04 1013.49 1012.93 1012.41 1011.53 1010.72 1009.93 1009.69 1009.92 1009.93 1010.15 1010.67 1010.55 1010.17 1009.96 1010.81 1011.69 1012.35 1013.28 1013.69 1014.66 1015.93
1016.30 1016.61 1017.15 1017.58 1018.05 1018.48 1018.06 1017.95 1012.69 1012.12 1011.66 1011.62 1012.06 1012.68 1013.21 1013.75 1014.33 1015.20 1015.63 1015.82 1016.18 1016.44 1016.10 1015.92 1015.73 1015.29 1014.67 1014.15 1013.64 1013.13 1012.62 1011.97 1011.19 1010.48 1009.97 1010.03 1010.13 1010.11 1010.10 1010.28 1010.36 1010.77 1011.42 1012.21 1012.75 1013.27 1013.77 1014.62 1015.53
1016.42 1016.97 1017.56 1018.14 1018.50 1018.78 1017.80 1017.55 1013.41 1012.16 1011.20 1011.49 1012.11 1012.75 1013.26 1013.98 1014.60 1015.31 1015.66 1015.73 1016.09 1016.31 1015.92 1015.68 1015.55 1015.26 1014.69 1014.24 1013.75 1013.45 1013.03 1012.29 1011.63 1011.22 1010.79 1010.30 1010.03 1010.25 1010.26 1010.54 1010.84 1011.23 1011.93 1012.38 1013.16 1013.77 1014.30 1014.96 1015.60
1016.65 1017.15 1018.08 1018.62 1019.00 1018.25 1017.71 1017.37 1012.31 1010.91 1010.69 1010.99 1011.83 1012.73 1013.33 1014.18 1014.72 1015.32 1015.78 1015.85 1016.00 1016.24 1015.91 1015.56 1015.41 1015.20 1014.77 1014.37 1013.99 1013.72 1013.36 1012.98 1012.40 1011.74 1011.33 1011.13 1010.92 1010.44 1010.87 1011.19 1011.47 1011.88 1012.34 1012.80 1013.42 1014.02 1014.71 1015.10 1015.91
1016.66 1016.79 1017.50 1018.15 1018.97 1018.10 1017.49 1015.32 1010.83 1010.09 1010.27 1010.80 1011.58 1012.39 1013.29 1014.16 1014.69 1015.21 1015.74 1015.87 1015.88 1016.04 1015.89 1015.50 1015.41 1015.19 1014.89 1014.47 1014.25 1013.95 1013.59 1013.27 1012.83 1012.69 1012.25 1011.99 1011.78 1011.65 1011.69 1011.74 1012.08 1012.22 1012.65 1012.98 1013.45 1014.23 1014.87 1015.62 1016.40
1016.73 1016.87 1016.69 1017.60 1019.10 1018.08 1015.30 1012.69 1009.89 1009.72 1010.15 1010.81 1011.65 1012.59 1013.37 1013.94 1014.65 1015.05 1015.61 1015.84 1015.81 1015.88 1015.86 1015.48 1015.33 1015.30 1014.91 1014.60 1014.39 1014.27 1013.91 1013.62 1013.51 1013.13 1012.95 1012.80 1012.58 1012.46 1012.25 1012.34 1012.67 1012.94 1013.06 1013.27 1013.56 1013.91 1014.54 1015.34 1016.50
1015.90 1016.13 1016.95 1017.45 1017.78 1016.79 1014.18 1012.55 1010.02 1009.27 1009.49 1010.30 1011.38 1012.29 1013.15 1013.76 1014.47 1014.87 1015.34 1015.67 1015.69 1015.70 1015.71 1015.50 1015.20 1015.22 1014.92 1014.59 1014.63 1014.54 1014.37 1014.02 1013.91 1013.70 1013.51 1013.44 1013.38 1013.18 1013.13 1013.06 1013.16 1013.44 1013.70 1014.02 1014.25 1014.79 1015.13 1015.74 1017.05
1016.26 1016.15 1016.35 1016.27 1016.05 1015.34 1014.13 1010.76 1008.84 1008.67 1008.84 1009.61 1010.52 1011.54 1012.46 1013.15 1013.95 1014.45 1014.96 1015.35 1015.49 1015.59 1015.61 1015.54 1015.13 1015.08 1014.97 1014.65 1014.69 1014.67 1014.62 1014.40 1014.23 1014.06 1014.06 1014.06 1013.92 1013.92 1013.91 1014.15 1014.36 1014.52 1014.69 1014.97 1015.17 1015.54 1015.82 1016.52 1017.55
1015.41 1015.40 1015.47 1015.44 1015.71 1015.02 1013.65 1010.26 1008.10 1008.27 1008.70 1009.31 1010.01 1010.96 1011.71 1012.53 1013.20 1013.87 1014.43 1014.95 1015.28 1015.45 1015.48 1015.53 1015.20 1014.98 1015.05 1014.87 1014.69 1014.89 1014.83 1014.70 1014.60 1014.57 1014.51 1014.56 1014.56 1014.56 1014.69 1014.69 1014.77 1015.08 1015.27 1015.50 1015.73 1016.11 1016.43 1017.02 1017.93
Wind_Speed
4 3 1 6 5 4 2 4 2 2 2 2 2 2 2 2 2 2 4 4 5 3 7 10 14 15 15 16 16 15 15 15 13 11 11 11 11 11 11 11 10 11 13 13 14 13 14 13 13
3 1 5 3 5 2 4 2 5 3 3 5 3 1 1 2 1 4 3 6 3 6 7 9 13 15 15 15 15 15 15 15 15 17 14 14 13 13 13 14 14 13 14 13 13 13 15 15 14
2 3 4 5 3 4 4 4 4 3 2 3 4 1 3 2 1 3 0 2 5 6 6 8 13 14 15 15 15 14 14 14 14 15 15 16 15 16 16 16 15 15 16 15 13 14 12 16 15
3 4 4 4 4 5 5 3 4 5 1 2 3 2 1 2 3 2 3 3 4 5 7 9 12 14 14 14 14 14 14 14 14 14 13 13 14 12 17 18 18 17 16 17 16 14 14 14 13
4 3 4 2 4 4 4 2 5 5 3 3 3 3 2 2 4 4 4 4 4 5 6 7 12 12 13 13 14 15 14 15 15 15 15 13 14 14 13 15 18 19 18 17 16 17 16 14 14
4 3 3 3 4 4 4 3 4 3 2 3 3 4 3 2 5 3 4 4 3 4 5 5 8 11 12 13 13 14 13 15 15 15 15 15 14 14 15 16 14 19 20 20 17 17 16 15 18
6 4 4 3 4 3 4 4 3 4 4 5 4 3 1 3 4 5 4 2 3 4 4 4 4 7 10 13 13 13 13 15 15 15 15 15 15 15 15 15 16 17 20 20 17 15 16 17 18
5 4 3 4 4 5 3 3 1 4 5 2 2 5 4 4 7 5 3 1 1 1 2 3 5 6 7 8 12 12 14 15 16 15 14 14 15 15 14 12 13 16 19 20 18 17 17 18 18
2 4 3 5 7 4 2 3 3 1 3 3 5 4 2 6 6 3 0 2 1 2 3 4 5 6 7 8 8 11 13 15 16 13 12 12 8 10 10 9 13 14 16 19 18 20 19 19 17
4 3 8 3 5 4 2 4 2 3 4 5 3 2 5 5 4 4 3 4 3 4 5 3 5 6 7 7 8 9 10 8 8 9 10 8 8 8 10 11 13 15 16 20 18 21 19 15 9
3 5 3 4 3 3 2 2 3 3 6 9 8 6 7 5 5 4 4 4 3 4 4 5 6 6 8 8 6 4 4 5 6 9 8 8 7 6 6 5 5 6 9 6 12 13 6 6 8
2 4 3 2 3 3 3 1 4 8 7 3 8 4 6 7 7 7 6 5 4 5 6 6 7 8 9 6 7 8 6 5 6 7 9 6 5 6 6 5 6 5 4 8 9 6 8 10 11
4 1 4 3 4 5 1 7 7 9 11 4 5 6 8 7 6 5 5 4 4 5 5 7 7 8 8 9 8 8 7 7 8 7 8 6 6 6 6 6 6 4 6 9 9 10 7 6 9
3 3 5 4 3 3 4 4 1 5 0 7 7 8 7 7 8 3 5 4 4 4 6 7 8 8 8 9 11 8 7 8 7 7 7 8 6 6 6 6 7 5 7 8 10 11 9 7 8
1 5 4 3 3 4 2 6 10 3 2 4 8 7 7 8 6 8 4 3 3 3 5 7 9 9 10 11 10 8 8 8 7 7 9 8 6 7 7 6 7 6 8 13 12 11 7 8 7
1 3 4 1 2 2 1 9 4 3 4 7 7 7 7 7 8 6 5 4 2 3 5 8 8 11 11 11 9 8 8 8 8 6 6 8 7 7 6 6 6 5 6 13 11 11 9 9 8
6 4 2 6 3 1 1 8 4 2 4 7 8 8 8 6 6 6 4 4 1 3 5 8 10 11 13 11 9 9 11 8 7 6 5 7 7 7 6 5 4 5 6 11 12 11 10 11 10
3 2 3 5 3 1 4 20 18 10 7 12 9 8 8 8 9 5 6 3 2 3 5 7 8 10 11 9 8 8 8 7 5 5 6 6 5 7 5 4 3 4 4 10 11 13 9 12 12
5 2 4 4 1 3 7 15 21 13 10 15 12 10 10 9 2 4 5 2 3 2 6 7 9 10 8 6 7 5 7 8 6 5 7 5 6 6 5 4 2 2 3 12 12 13 14 10 14
2 0 5 5 0 1 7 23 21 7 5 6 9 9 10 6 5 5 4 1 2 4 5 8 9 9 8 6 6 4 7 5 7 5 4 4 6 5 4 4 3 5 1 13 13 14 9 8 9
2 4 3 4 6 1 8 11 5 1 3 3 5 5 5 10 9 6 5 1 2 4 6 8 9 9 8 9 7 6 6 4 3 3 1 4 6 4 5 4 4 5 8 10 12 13 17 10 7
2 2 3 1 4 3 5 9 9 3 8 3 2 3 5 7 6 5 5 2 2 3 5 7 8 8 7 10 8 8 5 4 4 5 1 2 4 4 6 6 7 9 10 11 13 11 15 12 13
3 3 3 2 3 3 2 2 12 4 4 2 4 3 4 6 8 8 6 4 2 3 4 6 7 7 8 8 8 6 7 6 6 7 4 3 3 3 4 5 7 10 9 8 10 13 13 9 12
8 4 4 4 2 2 2 4 9 4 5 2 2 4 6 6 7 6 5 3 1 2 4 5 7 6 7 7 8 8 8 8 7 8 8 4 3 2 4 7 8 9 10 10 10 10 12 10 9
3 4 4 6 3 6 2 1 14 5 6 4 7 8 7 6 7 7 6 4 2 2 3 4 6 5 7 7 7 8 7 8 7 6 5 8 5 4 7 8 8 7 8 9 10 9 9 10 10
6 6 6 7 3 4 3 8 9 5 1 4 2 6 7 7 6 7 6 5 3 2 2 3 6 6 6 6 7 6 6 4 4 6 6 5 5 5 6 7 7 8 8 8 9 8 8 9 7
6 5 4 7 2 3 5 9 10 4 5 2 6 5 8 8 7 8 6 5 4 3 3 2 4 6 4 5 5 6 5 6 6 6 7 5 7 5 8 8 8 7 6 6 11 9 12 13 8
3 5 4 2 3 4 5 6 7 3 6 8 7 9 8 7 7 7 7 6 4 3 3 1 3 3 3 3 4 4 4 6 6 5 7 6 6 7 7 8 9 9 9 8 8 6 8 12 6
3 3 2 2 4 6 2 7 6 4 3 8 9 8 9 9 9 8 7 6 5 3 3 2 3 2 3 3 3 3 3 5 6 5 6 5 5 6 8 8 9 8 9 8 10 9 11 13 10
3 7 8 5 6 2 3 9 1 5 3 3 7 8 7 8 8 8 8 7 6 5 4 3 2 2 2 2 4 3 3 5 5 5 5 5 6 6 7 8 10 9 9 9 10 11 11 13 11
Wind_Direction
359 359 65 46 58 56 276 254 176 204 212 333 86 161 185 81 170 205 176 16 353 17 9 6 12 18 19 17 13 7 357 354 326 299 274 252 235 226 212 210 202 195 194 183 175 169 155 150 140
354 335 44 88 95 102 261 242 211 198 156 146 93 86 135 207 127 123 147 353 38 32 20 15 14 13 11 10 7 2 359 358 345 357 314 276 258 243 231 213 207 204 204 195 185 180 165 159 145
156 33 85 89 107 185 219 214 174 175 154 165 122 53 144 174 151 146 3 54 62 37 23 10 11 6 2 359 356 353 351 347 347 347 341 339 286 255 239 230 216 211 207 199 196 190 187 161 156
53 22 45 94 221 247 214 189 191 158 148 97 129 196 238 200 156 146 99 60 60 28 14 8 11 4 358 353 349 344 338 336 334 334 326 326 333 326 259 238 226 217 210 205 200 186 177 172 152
39 51 75 83 256 256 256 234 180 194 168 162 143 200 222 202 126 106 106 77 52 15 11 15 9 5 359 351 345 341 336 332 329 327 325 318 304 312 309 264 235 223 217 212 204 178 175 170 133
53 97 71 235 237 256 266 215 187 198 162 164 142 158 227 149 161 142 123 85 54 30 21 18 11 9 4 355 342 334 331 331 324 320 319 317 318 305 292 285 275 231 221 213 207 181 184 155 143
116 98 197 223 254 278 225 144 218 198 173 233 145 171 196 217 154 147 131 112 59 39 27 7 355 1 3 355 348 339 327 324 321 316 315 312 310 303 287 274 275 261 221 213 208 181 180 154 147
105 92 149 230 216 260 179 160 185 192 221 88 151 211 221 200 152 143 151 49 42 38 337 330 354 350 351 341 330 329 326 321 313 308 307 306 301 295 289 280 264 269 226 213 202 181 163 153 149
141 67 227 235 170 233 186 170 178 262 139 221 204 179 160 133 134 146 232 271 284 287 321 340 333 338 334 325 314 315 308 307 309 305 296 297 290 288 296 280 278 266 240 215 197 177 164 152 144
98 139 225 212 188 213 205 175 195 199 201 236 228 189 141 148 165 192 220 258 270 300 308 303 323 322 323 319 309 300 299 295 297 297 292 288 285 286 289 286 271 279 250 208 189 179 159 148 146
151 209 211 237 212 187 205 241 209 196 241 219 202 193 177 173 185 209 231 232 253 272 276 320 320 322 316 311 299 283 284 287 292 290 286 282 280 286 286 283 283 270 238 186 181 163 145 145 140
208 235 221 230 216 167 213 237 251 202 233 163 211 163 164 187 202 216 227 231 246 279 293 316 329 324 315 306 296 294 293 286 277 278 279 274 276 281 282 281 277 288 200 174 155 147 150 155 139
201 254 231 235 224 245 301 241 238 246 237 225 142 161 181 197 209 223 226 242 270 278 311 320 328 321 314 303 298 291 285 275 267 271 272 266 257 267 282 281 286 297 183 164 148 137 125 135 133
173 241 256 264 235 250 238 251 68 247 238 197 179 199 204 206 209 220 220 245 263 297 321 324 325 309 302 305 301 297 290 283 269 259 257 257 245 257 273 282 278 277 190 150 140 132 146 146 136
183 301 309 230 233 241 209 263 233 191 114 180 210 217 221 224 218 226 221 230 254 305 318 319 321 318 316 308 302 302 294 290 282 273 263 243 239 247 257 271 271 270 188 144 128 132 126 124 117
35 55 337 205 198 288 262 272 281 53 169 238 231 229 229 231 226 231 228 227 264 323 334 313 318 321 317 314 308 304 296 288 285 271 262 255 240 242 245 258 266 280 191 138 137 133 136 119 118
11 256 270 320 218 331 101 277 272 96 185 253 238 228 229 240 244 234 209 187 337 347 324 320 328 326 320 313 300 295 292 290 283 275 271 261 245 246 234 248 263 310 181 132 130 125 131 125 118
232 301 262 253 318 7 258 262 268 248 209 238 230 226 227 225 235 215 176 162 25 338 323 323 325 316 316 306 307 297 293 285 288 274 269 257 241 245 228 233 255 276 134 129 128 129 139 128 118
127 168 263 267 338 287 253 277 279 273 227 246 238 225 224 218 222 178 160 101 13 2 341 336 326 326 321 331 320 313 315 312 306 291 268 257 228 236 225 220 174 277 223 137 140 132 134 124 123
140 182 273 278 322 251 321 292 282 281 244 231 241 235 223 170 169 165 158 108 5 329 329 332 330 324 320 320 307 290 298 293 284 281 272 243 228 228 204 227 216 214 62 138 137 135 126 134 132
185 178 231 245 319 70 320 290 324 278 276 238 257 251 207 189 173 171 171 168 342 357 335 331 327 324 330 327 309 309 296 288 297 314 270 221 221 214 163 220 269 258 212 135 136 138 139 144 105
247 188 160 22 34 273 16 284 304 316 303 255 264 230 198 163 144 140 166 163 348 343 325 331 328 327 338 328 324 346 322 325 326 341 81 160 199 148 163 199 232 134 129 139 149 150 143 143 143
195 125 119 99 88 359 335 71 269 344 315 242 215 195 174 173 153 157 170 160 66 345 350 333 328 338 341 341 337 351 353 341 340 356 37 107 137 153 177 171 137 110 113 121 137 145 144 147 152
148 93 57 61 81 350 222 138 283 228 208 204 184 195 170 163 154 153 170 143 110 336 8 340 343 338 348 360 349 7 9 359 18 19 360 6 67 115 135 114 104 108 123 134 145 142 156 152 150
99 86 335 343 12 226 119 51 248 247 217 196 186 202 191 181 169 165 181 187 147 21 359 358 338 348 358 12 357 7 16 23 22 15 25 23 32 54 96 104 104 111 119 135 143 137 140 142 138
177 165 165 223 223 285 54 236 254 206 267 210 200 199 179 187 191 178 189 194 180 101 331 27 346 346 357 15 5 7 15 28 31 38 19 31 33 38 63 73 86 108 117 121 136 137 133 132 119
181 194 165 108 59 35 227 275 285 230 257 178 187 186 203 199 195 186 182 201 200 143 286 33 5 351 358 22 14 13 16 32 31 49 57 31 21 36 71 78 87 69 79 114 142 145 140 140 148
158 167 97 354 184 251 275 276 247 268 239 206 207 214 213 206 198 192 184 198 209 189 259 321 55 340 335 45 33 29 29 33 27 54 69 65 43 48 55 70 79 77 76 80 83 93 125 121 109
137 206 70 121 169 177 262 262 213 248 263 207 211 205 200 203 199 193 187 197 198 193 225 266 88 16 350 36 59 52 56 57 43 40 57 49 69 70 83 82 80 91 95 92 96 94 101 101 104
188 191 178 152 211 244 141 273 215 249 319 209 211 210 207 203 198 194 183 182 193 204 209 235 140 107 357 29 74 61 68 84 76 60 51 61 75 77 84 99 106 101 92 104 112 111 109 116 117